Tracking 29892 objects as of 21-Nov-2024
HD Live streaming from Space Station
objects crossing your sky now

GSAT0203

Track GSAT0203 now!
GSAT0203 is classified as:


NORAD ID: 40544
Int'l Code: 2015-017A
Perigee: 23,211.4 km
Apogee: 23,246.8 km
Inclination: 56.9 °
Period: 844.7 minutes
Semi major axis: 29600 km
RCS: Unknown
Launch date: March 27, 2015
Source: European Space Agency (ESA)
Launch site: FRENCH GUIANA (FRGUI)

GSAT0203 is a member of European's Galileo navigation satellite constellation.
Your satellite tracking list
Your tracking list is empty




NASA's NSSDC Master Catalog

Two Line Element Set (TLE):
1 40544U 15017A   24325.53365815 -.00000096  00000-0  00000+0 0  9998
2 40544  56.9155 357.2182 0005985 259.2945 100.6872  1.70476103 60088
Source of the keplerian elements: AFSPC